Regional Weather Roundup
Issued by NWS

Home | Current Version | Previous Version | Text Only | Print | Product List | Glossary On
Versions: 1 2 3 4 5 6 7 8 9 10 11 12 13 14 15 16 17 18 19 20 21 22 23 24 25 26 27 28 29 30 31 32 33 34 35 36 37 38 39 40 41 42 43 44 45 46 47 48 49 50
000
ASUS43 KMPX 180701
RWRMN
WEATHER ROUNDUP FOR MINNESOTA
NATIONAL WEATHER SERVICE TWIN CITIES/CHANHASSEN MN
100 AM CST THU DEC 18 2014


NOTE: "FAIR" INDICATES FEW OR NO CLOUDS BELOW 12,000 FEET WITH NO
SIGNIFICANT WEATHER AND/OR OBSTRUCTIONS TO VISIBILITY. N/A MEANS
CURRENT SKY AND/OR WEATHER CONDITIONS ARE NOT AVAILABLE.

MNZ060>063-068>070-180800-
   Twin Cities Metro

CITY           SKY/WX    TMP DP  RH WIND       PRES   REMARKS
TWIN CITIES    MOCLDY    14   9  80 CALM      30.34R
ST PAUL        MOCLDY    14   9  80 CALM      30.35S
CRYSTAL        MOCLDY    10   6  84 CALM      30.32S
BLAINE         PTCLDY    10   9  92 CALM      30.32S
LAKEVILLE      MOCLDY     9   7  92 CALM      30.32S
EDEN PRAIRIE   MOCLDY    12   8  84 CALM      30.32S
SOUTH ST PAUL  MOCLDY    12   9  85 CALM      30.34R
LAKE ELMO      CLOUDY    12   9  85 CALM      30.33F
$$
MNZ001>005-007-008-013>017-022>024-027-028-180800-
   Northwest Minnesota

CITY           SKY/WX    TMP DP  RH WIND       PRES   REMARKS
BEMIDJI        PTCLDY     2  -1  85 CALM      30.27F
HALLOCK        PTCLDY     5   1  85 E5        30.29F WCI  -4
ROSEAU         PTCLDY     7   1  78 CALM      30.30F
WARROAD        PTCLDY     7   1  78 E5        30.30F WCI  -2
THIEF RVR FALL PTCLDY     9   7  92 CALM      30.29F
CROOKSTON      PTCLDY     9   7  92 E5        30.31F WCI   0
FOSSTON        PTCLDY     3   1  92 CALM      30.28S
DETROIT LAKES  PTCLDY     9   5  85 SW3       30.29S
MOORHEAD       PTCLDY     9   9 100 E5        30.30F WCI   0
PARK RAPIDS    PTCLDY     3  -1  83 CALM      30.27S
MAHNOMEN       FAIR       9   5  86 SE6       30.28S WCI  -1
$$
MNZ006-009>011-018-025>026-180800-
   North Central Minnesota

CITY           SKY/WX    TMP DP  RH WIND       PRES   REMARKS
BAUDETTE       MOCLDY     3  -1  83 CALM      30.30F
FLAG ISLAND    MOCLDY    10   3  72 SE3       30.31S
INTL FALLS     PTCLDY     1  -4  79 CALM      30.31F
WASKISH        MOCLDY     1   0  92 CALM      30.30F
BIG FORK       PTCLDY     1  -2  85 CALM      30.30S
LONGVILLE      PTCLDY     1  -2  85 CALM      30.29F
GRAND RAPIDS   PTCLDY     3   0  85 CALM      30.29R
CRANE LAKE     PTCLDY    -6  -8  92 CALM      30.35S
ORR            FAIR       0  -6  78 CALM      30.28S
COOK           PTCLDY    -4  -8  84 CALM      30.30S
WALKER         FAIR       2  -1  86 CALM      30.27F
$$
MNZ012-019>021-037-180800-
   Northeast Minnesota

CITY           SKY/WX    TMP DP  RH WIND       PRES   REMARKS
DULUTH         FLURRIES  18  13  80 NW3       30.28S
ELY            PTCLDY    -4  -8  84 CALM      30.30S
HIBBING        MOCLDY     3  -2  79 CALM      30.30R
EVELETH        MOCLDY     3   0  85 CALM      30.31R
DULUTH HARBOR  CLOUDY    21  18  86 CALM      30.35R
SILVER BAY     CLOUDY    18  12  79 CALM      30.28S
GRAND MARAIS     N/A     14   3  61 CALM      30.34S
G MARAIS ARPRT PTCLDY     3  -2  78 N7        30.25S WCI  -9
$$
MNZ029>031-032-039>041-046>048-054>057-064-180800-
   West Central Minnesota

CITY           SKY/WX    TMP DP  RH WIND       PRES   REMARKS
FERGUS FALLS   CLEAR      7   3  85 E5        30.33S WCI  -2
WHEATON        PTCLDY     1   0  92 CALM      30.32F
MORRIS         PTCLDY     7   3  85 E5        30.29S WCI  -2
ALEXANDRIA     PTCLDY     8   5  87 E3        30.28F
ELBOW LAKE     FAIR       9   7  92 E5        30.29S WCI   0
WADENA         PTCLDY     1   0  92 CALM      30.28R
GLENWOOD       PTCLDY     9   7  92 E3        30.29S
APPLETON       PTCLDY     7   1  78 CALM      30.31F
BENSON         PTCLDY     7   3  85 CALM      30.31S
ORTONVILLE     CLEAR      5   1  85 CALM      30.30S
MADISON        CLEAR      7   3  85 CALM      30.30F
WILLMAR        FAIR      10   7  85 E3        30.31F
$$
MNZ033>034-036-042>043-049>051-058-059-180800-
   Central Minnesota

CITY           SKY/WX    TMP DP  RH WIND       PRES   REMARKS
ST CLOUD       PTCLDY    12   7  80 CALM      30.32R
SAUK CENTRE    FAIR       6   3  89 CALM      30.31S
PAYNESVILLE    PTCLDY     6   4  95 CALM      30.31S
AITKIN         MOCLDY     3  -2  78 CALM      30.29F
PINE RIVER     PTCLDY     3   0  85 CALM      30.31F
BRAINERD       PTCLDY     2  -1  88 CALM      30.30S
STAPLES        PTCLDY     5   3  92 CALM      30.28S
LONG PRAIRIE   FAIR       9   5  85 CALM      30.29S
LITTLE FALLS   PTCLDY     9   5  85 CALM      30.31S
LITCHFIELD     CLEAR     10  10 100 CALM      30.32S
BUFFALO        PTCLDY    11   8  89 CALM      30.33F
MAPLE LAKE     PTCLDY    10   9  92 CALM      30.33S
$$
MNZ037-044-045-052-053-180800-
   East Central Minnesota

CITY           SKY/WX    TMP DP  RH WIND       PRES   REMARKS
PRINCETON      PTCLDY     9   5  85 CALM      30.32R
MORA           CLOUDY     9   5  85 CALM      30.34S
CAMBRIDGE      PTCLDY     9   1  72 CALM      30.31S
RUSH CITY      CLOUDY    16  14  90 CALM      30.32F
MOOSE LAKE     LGT SNOW  10   7  85 CALM      30.31S
HINCKLEY       FLURRIES  18  14  86 CALM      30.32S
CLOQUET        FLURRIES  16  14  93 CALM      30.30R
MCGREGOR       CLOUDY     7   3  85 CALM      30.31F
$$
MNZ071>073-080-081-089-090-097-098-180800-
   Southwest Minnesota

CITY           SKY/WX    TMP DP  RH WIND       PRES   REMARKS
MONTEVIDEO     PTCLDY     7   3  85 CALM      30.31F
GRANITE FALLS  PTCLDY     6   3  90 CALM      30.32F
CANBY          PTCLDY     3   0  89 CALM      30.30F
MARSHALL       PTCLDY     1  -2  85 CALM      30.29S
REDWOOD FALLS  CLEAR      9   5  84 CALM      30.31F
OLIVIA         PTCLDY    12  10  92 E3        30.30F
PIPESTONE      PTCLDY     9   7  92 CALM      30.24S
WINDOM           N/A      5   3  92 CALM      30.27F
WORTHINGTON    PTCLDY     9   7  92 CALM      30.27S
JACKSON        PTCLDY    10   5  79 CALM      30.27S
TRACY          PTCLDY     7   4  89 CALM      30.29R
SLAYTON        PTCLDY     6   4  93 CALM      30.27R
$$
MNZ065>067-074>077-082>085-091>093-180800-
   South Central Minnesota

CITY           SKY/WX    TMP DP  RH WIND       PRES   REMARKS
MANKATO        CLOUDY    16   9  73 E5        30.31F WCI   9
NEW ULM        FLURRIES  16  14  93 CALM      30.31F
ST JAMES       CLOUDY    12  10  92 CALM      30.31S
FAIRMONT       PTCLDY     9   5  85 N6        30.28S WCI  -1
GLENCOE        PTCLDY    12  11  92 CALM      30.32S
FARIBAULT      PTCLDY    10   9  92 CALM      30.31F
OWATONNA       PTCLDY    10   9  92 CALM      30.31R
WASECA         CLOUDY    14  10  85 CALM      30.32S
ALBERT LEA     CLOUDY    18  16  93 NE5       30.28S WCI  11
$$
MNZ078>079-086>088-094>096-180800-
   Southeast Minnesota

CITY           SKY/WX    TMP DP  RH WIND       PRES   REMARKS
ROCHESTER      CLOUDY    16  11  80 CALM      30.28F
RED WING       MOCLDY    12   9  85 CALM      30.33R
STANTON        PTCLDY    10   7  86 CALM      30.31F
DODGE CENTER   PTCLDY    12  10  92 CALM      30.28S
WINONA         CLOUDY    18  14  86 CALM      30.34S
AUSTIN         MOCLDY    14  10  85 CALM      30.28F
PRESTON        CLOUDY    16  12  86 N3        30.28F
$$
ABBREVIATIONS USED IN REMARKS
   TC - TEMPERATURES IN CELSIUS
  WCI - WIND CHILL INDEX
   HX - HEAT INDEX
  VSB - VISIBILITY
$$



USA.gov is the U.S. government's official web portal to all federal, state and local government web resources and services.